1507359600.08,613,11.75,73258.0,-3.71,-4.13,-4.25,0,*54
1507359601.28,614,11.75,73256.3,-3.69,-4.13,-4.25,0,*5A
1507359602.47,615,11.75,73252.5,-3.69,-4.13,-4.25,0,*5B
1507359603.68,616,11.75,73254.3,-3.71,-4.13,-4.25,0,*51
1507359604.87,617,11.75,73256.5,-3.69,-4.13,-4.25,0,*59
1507359606.07,618,11.75,73256.0,-3.69,-4.21,-4.25,0,*57
1507359607.27,619,11.75,73262.3,-3.69,-4.21,-4.25,0,*56
1507359608.47,620,11.75,73262.0,-3.69,-4.21,-4.25,0,*5C
1507359609.66,621,11.75,73258.5,-3.69,-4.13,-4.21,0,*58
1507359610.85,622,11.75,73258.5,-3.69,-4.13,-4.25,0,*5F
1507359612.04,623,11.75,73258.8,-3.69,-4.13,-4.25,0,*5E
1507359613.24,624,11.75,73252.0,-3.69,-4.21,-4.25,0,*58
1507359614.43,625,11.75,73256.8,-3.69,-4.13,-4.25,0,*58
1507359615.65,626,11.75,73258.5,-3.67,-4.17,-4.21,0,*55
1507359616.86,627,11.75,73256.5,-3.67,-4.17,-4.17,0,*51
1507359618.09,628,11.75,73252.3,-3.67,-4.09,-4.21,0,*54
1507359619.3,629,11.75,73252.8,-3.67,-4.21,-4.17,0,*5A
1507359620.52,630,11.75,73250.5,-3.67,-4.17,-4.21,0,*52
1507359621.75,631,11.75,73248.5,-3.67,-4.09,-4.21,0,*5C
1507359622.93,632,11.75,73244.8,-3.65,-4.09,-4.17,0,*58
1507359624.15,633,11.75,73244.0,-3.67,-4.09,-4.21,0,*5E
1507359625.35,634,11.75,73250.0,-3.65,-4.17,-4.21,0,*54
1507359626.54,635,11.75,73250.0,-3.65,-4.17,-4.21,0,*55
1507359627.75,636,11.75,73248.3,-3.67,-4.17,-4.17,0,*51
1507359628.97,637,11.75,73250.0,-3.67,-4.09,-4.21,0,*5A
1507359630.17,638,11.75,73250.8,-3.65,-4.09,-4.21,0,*57
1507359631.36,639,11.75,73250.8,-3.65,-4.17,-4.21,0,*59
1507359632.56,640,11.75,73248.3,-3.65,-4.17,-4.21,0,*57
1507359633.78,641,11.75,73244.0,-3.67,-4.09,-4.21,0,*5B
1507359634.97,642,11.75,73250.5,-3.65,-4.09,-4.21,0,*5A
1507359636.2,643,11.75,73250.5,-3.67,-4.05,-4.21,0,*55
1507359637.39,644,11.81,73254.5,-3.65,-4.17,-4.21,0,*53
1507359638.58,645,11.75,73254.3,-3.65,-4.17,-4.21,0,*52
1507359639.78,646,11.75,73252.0,-3.65,-4.17,-4.21,0,*51
1507359640.96,647,11.75,73250.8,-3.65,-4.17,-4.17,0,*55
1507359642.16,648,11.75,73254.5,-3.65,-4.17,-4.21,0,*5F
1507359643.35,649,11.75,73252.3,-3.61,-4.21,-4.17,0,*5A
1507359644.55,650,11.75,73250.5,-3.65,-4.17,-4.21,0,*56
1507359645.73,651,11.75,73248.0,-3.61,-4.05,-4.17,0,*55
1507359646.93,652,11.75,73250.5,-3.65,-4.05,-4.21,0,*57
1507359648.11,653,11.75,73248.0,-3.65,-4.09,-4.17,0,*5F
1507359649.31,654,11.75,73244.5,-3.65,-4.05,-4.21,0,*51
1507359650.49,655,11.75,73244.0,-3.61,-4.05,-4.17,0,*51
1507359651.68,656,11.75,73244.3,-3.61,-4.13,-4.17,0,*55
1507359652.87,657,11.81,73246.5,-3.61,-4.09,-4.13,0,*5B
1507359654.06,658,11.75,73248.0,-3.65,-4.17,-4.21,0,*5E
1507359655.26,659,11.75,73250.0,-3.61,-4.17,-4.21,0,*5B
1507359656.45,660,11.75,73246.8,-3.61,-4.05,-4.21,0,*52
1507359657.63,661,11.75,73250.3,-3.61,-4.05,-4.17,0,*56
1507359658.82,662,11.81,73248.3,-3.61,-4.13,-4.17,0,*52
1507359660.03,663,11.75,73246.0,-3.59,-4.09,-4.13,0,*57
1507359661.21,664,11.75,73248.5,-3.61,-4.17,-4.17,0,*50
1507359662.4,665,11.75,73248.3,-3.61,-4.13,-4.17,0,*55
1507359663.61,666,11.81,73250.5,-3.59,-4.09,-4.13,0,*52
1507359664.8,667,11.81,73252.5,-3.61,-4.05,-4.17,0,*50
1507359666.04,668,11.81,73252.0,-3.59,-4.01,-4.13,0,*54
1507359667.23,669,11.81,73250.8,-3.61,-4.13,-4.17,0,*59
1507359668.41,670,11.75,73248.0,-3.61,-4.13,-4.17,0,*51
1507359669.65,671,11.75,73246.0,-3.59,-4.01,-4.09,0,*57
1507359670.84,672,11.75,73250.0,-3.61,-4.05,-4.17,0,*54
1507359672.06,673,11.75,73252.5,-3.61,-4.01,-4.13,0,*55
1507359673.27,674,11.81,73254.0,-3.59,-4.09,-4.13,0,*51
1507359674.46,675,11.75,73252.8,-3.57,-4.09,-4.09,0,*55
1507359675.65,676,11.81,73256.3,-3.61,-4.13,-4.17,0,*57
1507359676.89,677,11.75,73256.0,-3.59,-4.01,-4.13,0,*5A
1507359678.08,678,11.75,73252.8,-3.61,-4.05,-4.17,0,*5E
1507359679.27,679,11.81,73254.8,-3.57,-3.95,-4.13,0,*50
1507359680.47,680,11.81,73254.8,-3.57,-3.95,-4.13,0,*56
1507359681.69,681,11.75,73256.0,-3.57,-4.01,-4.09,0,*56
1507359682.91,682,11.75,73254.3,-3.57,-4.01,-4.09,0,*55
1507359684.13,683,11.81,73260.8,-3.57,-4.01,-4.13,0,*5F
1507359685.36,684,11.81,73260.8,-3.57,-4.01,-4.13,0,*58
1507359686.55,685,11.75,73258.0,-3.57,-4.09,-4.21,0,*50
1507359687.74,686,11.75,73256.5,-3.57,-4.09,-4.13,0,*52
1507359688.93,687,11.81,73258.3,-3.57,-4.09,-4.13,0,*53
1507359690.14,688,11.81,73252.3,-3.55,-4.05,-4.17,0,*56
1507359691.34,689,11.81,73252.0,-3.55,-4.05,-4.09,0,*58
1507359692.55,690,11.75,73252.5,-3.55,-4.05,-4.09,0,*50
1507359693.74,691,11.81,73258.5,-3.57,-4.09,-4.09,0,*5F
1507359694.93,692,11.81,73258.5,-3.57,-4.09,-4.13,0,*57
1507359696.13,693,11.81,73258.3,-3.57,-4.09,-4.21,0,*57
1507359697.32,694,11.81,73256.5,-3.57,-4.09,-4.21,0,*50
1507359698.51,695,11.81,73256.3,-3.57,-4.09,-4.13,0,*50
1507359699.73,696,11.75,73254.8,-3.55,-3.95,-4.05,0,*54
1507359700.93,697,11.81,73254.5,-3.55,-4.05,-4.17,0,*58
1507359702.14,698,11.81,73258.5,-3.55,-4.05,-4.09,0,*58
1507359703.36,699,11.75,73258.0,-3.57,-4.01,-4.09,0,*5F
1507359704.55,700,11.81,73258.0,-3.57,-4.13,-4.13,0,*56
1507359705.76,701,11.81,73256.8,-3.55,-4.05,-4.05,0,*55
1507359706.97,702,11.81,73260.8,-3.55,-4.05,-4.09,0,*5A
1507359708.17,703,11.81,73258.3,-3.55,-4.05,-4.09,0,*5B
1507359709.38,704,11.81,73258.5,-3.55,-4.09,-4.05,0,*5C
1507359710.59,705,11.81,73256.5,-3.55,-4.09,-4.09,0,*51
1507359711.8,706,11.75,73256.5,-3.55,-4.05,-4.09,0,*5E
1507359713.0,707,11.81,73256.8,-3.55,-4.05,-4.17,0,*50
1507359714.22,708,11.81,73256.5,-3.55,-4.05,-4.21,0,*5A
1507359715.42,709,11.81,73262.5,-3.55,-4.09,-4.17,0,*52
1507359716.63,710,11.81,73260.3,-3.55,-4.05,-4.09,0,*59
1507359717.84,711,11.81,73258.0,-3.55,-4.05,-4.17,0,*57
1507359719.04,712,11.81,73260.8,-3.55,-4.05,-4.17,0,*54
1507359720.23,713,11.81,73258.5,-3.57,-4.13,-4.21,0,*55
1507359721.43,714,11.81,73258.0,-3.53,-4.09,-4.21,0,*5D
1507359722.63,715,11.81,73258.8,-3.55,-4.09,-4.17,0,*5F
1507359723.85,716,11.81,73260.5,-3.55,-4.05,-4.21,0,*55
1507359725.06,717,11.81,73262.0,-3.55,-4.09,-4.21,0,*58
1507359726.27,718,11.81,73258.8,-3.55,-4.17,-4.29,0,*50
1507359727.48,719,11.81,73258.0,-3.55,-4.17,-4.29,0,*51
1507359728.69,720,11.81,73258.5,-3.55,-4.17,-4.29,0,*5B
1507359729.88,721,11.81,73256.5,-3.53,-4.17,-4.17,0,*51
1507359731.09,722,11.81,73260.0,-3.55,-4.09,-4.21,0,*5E
1507359732.31,723,11.81,73262.0,-3.55,-4.17,-4.21,0,*50
1507359733.51,724,11.81,73266.5,-3.55,-4.05,-4.17,0,*51
1507359734.7,725,11.81,73264.8,-3.53,-4.09,-4.17,0,*5A
1507359735.9,726,11.81,73260.8,-3.55,-4.09,-4.17,0,*5F
1507359737.11,727,11.81,73264.3,-3.51,-4.05,-4.17,0,*56
1507359738.29,728,11.81,73264.0,-3.53,-4.05,-4.17,0,*5B
1507359739.48,729,11.81,73260.8,-3.53,-4.05,-4.17,0,*5A
1507359740.66,730,11.81,73262.8,-3.53,-4.05,-4.17,0,*52
1507359741.85,731,11.81,73262.0,-3.53,-4.05,-4.09,0,*5C
1507359743.03,732,11.81,73260.0,-3.53,-4.09,-4.17,0,*5C
1507359744.25,733,11.81,73262.5,-3.53,-4.01,-4.17,0,*55
1507359745.43,734,11.81,73264.3,-3.53,-4.09,-4.17,0,*5A
1507359746.62,735,11.81,73264.8,-3.53,-4.09,-4.17,0,*5B
1507359747.8,736,11.81,73264.8,-3.53,-4.09,-4.17,0,*58
1507359749.01,737,11.81,73262.8,-3.51,-4.05,-4.13,0,*53
1507359750.2,738,11.81,73268.0,-3.53,-4.09,-4.09,0,*59
1507359751.44,739,11.81,73264.8,-3.51,-4.01,-4.05,0,*5E
1507359752.63,740,11.81,73260.8,-3.53,-4.05,-4.17,0,*55
1507359753.87,741,11.81,73262.5,-3.51,-4.01,-4.13,0,*56
1507359755.09,742,11.81,73262.8,-3.53,-4.01,-4.17,0,*53
1507359756.27,743,11.81,73264.3,-3.53,-4.05,-4.17,0,*56
1507359757.52,744,11.81,73264.5,-3.51,-4.01,-4.13,0,*53
1507359758.73,745,11.81,73262.3,-3.51,-4.05,-4.05,0,*51
1507359759.94,746,11.81,73260.3,-3.51,-4.05,-4.05,0,*52
1507359761.15,747,11.81,73266.5,-3.51,-4.05,-4.05,0,*53
1507359762.4,748,11.81,73262.0,-3.51,-4.01,-4.13,0,*5F
1507359763.61,749,11.81,73262.5,-3.51,-4.05,-4.13,0,*5A
1507359764.82,750,11.81,73262.0,-3.51,-4.05,-4.05,0,*55
1507359766.04,751,11.81,73266.5,-3.51,-4.05,-4.05,0,*54
1507359767.25,752,11.81,73264.8,-3.51,-4.05,-4.05,0,*57
1507359768.47,753,11.81,73260.0,-3.49,-4.01,-4.13,0,*5C
1507359769.68,754,11.81,73256.8,-3.51,-4.05,-4.05,0,*51
1507359770.89,755,11.81,73256.5,-3.51,-4.05,-4.13,0,*57
1507359772.1,756,11.81,73262.8,-3.51,-4.05,-4.05,0,*53
1507359773.32,757,11.81,73262.8,-3.49,-4.01,-4.05,0,*5F
1507359774.56,758,11.81,73264.0,-3.47,-3.95,-4.01,0,*50
1507359775.74,759,11.81,73264.3,-3.49,-4.05,-4.05,0,*55
1507359776.93,760,11.81,73262.0,-3.49,-4.05,-4.13,0,*58
1507359778.17,761,11.81,73262.8,-3.47,-3.95,-4.01,0,*5A
1507359779.35,762,11.81,73262.0,-3.49,-4.05,-4.05,0,*5D
1507359780.57,763,11.81,73260.3,-3.49,-4.01,-4.05,0,*58
1507359781.79,764,11.81,73260.0,-3.49,-4.01,-4.05,0,*5F
1507359783.0,765,11.81,73260.0,-3.49,-4.01,-4.05,0,*5E
1507359784.25,766,11.81,73260.8,-3.49,-4.01,-4.01,0,*59
1507359785.44,767,11.81,73260.5,-3.49,-3.91,-4.05,0,*52
1507359786.66,768,11.81,73260.3,-3.49,-4.01,-4.05,0,*53
1507359787.89,769,11.81,73262.5,-3.47,-3.87,-4.01,0,*51
1507359789.13,770,11.81,73262.0,-3.47,-3.95,-4.01,0,*5A
1507359790.37,771,11.81,73262.0,-3.49,-4.01,-4.01,0,*5F
1507359791.58,772,11.81,73260.8,-3.47,-3.95,-4.09,0,*50
1507359792.79,773,11.81,73262.0,-3.47,-3.95,-4.09,0,*51
1507359793.98,774,11.81,73262.0,-3.49,-3.95,-4.13,0,*53
1507359795.19,775,11.81,73260.0,-3.47,-3.95,-4.09,0,*57
1507359796.41,776,11.81,73260.3,-3.49,-4.01,-4.13,0,*5B
1507359797.63,777,11.81,73264.0,-3.49,-4.01,-4.13,0,*5A
1507359798.87,778,11.81,73262.5,-3.47,-3.95,-4.01,0,*52
1507359800.1,779,11.81,73262.8,-3.47,-4.01,-4.09,0,*51
1507359801.34,780,11.81,73262.8,-3.47,-4.01,-3.95,0,*55
1507359802.6,781,11.81,73264.0,-3.47,-4.01,-4.01,0,*5E
1507359803.83,782,11.81,73266.3,-3.47,-4.01,-4.09,0,*55
1507359805.04,783,11.81,73262.8,-3.47,-3.95,-4.09,0,*5E
1507359806.28,784,11.81,73262.3,-3.47,-4.01,-3.95,0,*51
1507359807.54,785,11.81,73264.8,-3.47,-4.01,-4.01,0,*5A
1507359808.74,786,11.81,73264.3,-3.49,-3.91,-4.05,0,*5D
1507359809.97,787,11.81,73260.3,-3.47,-3.95,-4.01,0,*52
1507359811.18,788,11.81,73266.8,-3.47,-3.95,-4.09,0,*55
1507359812.37,789,11.81,73264.5,-3.45,-3.95,-4.09,0,*56
1507359813.58,790,11.81,73264.0,-3.43,-3.91,-3.95,0,*5E
1507359814.8,791,11.81,73266.3,-3.43,-3.95,-3.95,0,*5B
1507359816.01,792,11.81,73264.3,-3.43,-3.91,-3.95,0,*5C
1507359817.23,793,11.81,73270.0,-3.45,-3.95,-4.01,0,*55
1507359818.44,794,11.81,73268.5,-3.45,-4.01,-4.09,0,*50
1507359819.65,795,11.81,73268.8,-3.43,-3.91,-4.05,0,*55
1507359820.87,796,11.81,73264.3,-3.45,-3.95,-4.01,0,*50
1507359822.09,797,11.81,73262.3,-3.43,-3.91,-3.91,0,*5D
1507359823.3,798,11.88,73266.8,-3.45,-3.87,-4.01,0,*5D
1507359824.51,799,11.81,73262.0,-3.43,-3.95,-3.95,0,*53
1507359825.72,800,11.81,73262.3,-3.45,-3.95,-4.01,0,*50
1507359826.93,801,11.81,73264.8,-3.45,-3.95,-4.01,0,*51
1507359828.12,802,11.81,73260.5,-3.45,-3.95,-3.95,0,*58
1507359829.33,803,11.81,73262.5,-3.43,-3.91,-3.95,0,*5B
1507359830.55,804,11.81,73264.3,-3.43,-3.91,-3.95,0,*5C
1507359831.77,805,11.81,73266.0,-3.43,-3.91,-3.95,0,*5D
1507359832.98,806,11.81,73262.8,-3.43,-3.91,-3.95,0,*5E
1507359834.2,807,11.81,73264.3,-3.43,-3.91,-3.95,0,*5F
1507359835.42,808,11.81,73266.0,-3.43,-3.91,-3.91,0,*54
1507359836.63,809,11.81,73260.0,-3.43,-3.83,-3.95,0,*52
1507359837.85,810,11.81,73262.0,-3.43,-3.91,-4.05,0,*57
1507359839.06,811,11.81,73260.3,-3.43,-3.83,-3.95,0,*5B
1507359840.28,812,11.88,73264.0,-3.43,-3.83,-3.95,0,*58
1507359841.47,813,11.81,73264.0,-3.39,-3.87,-3.91,0,*54
1507359842.65,814,11.81,73264.8,-3.39,-3.87,-3.91,0,*53
1507359843.87,815,11.81,73264.3,-3.43,-3.83,-3.95,0,*5F
1507359845.09,816,11.81,73266.3,-3.43,-3.83,-3.91,0,*58
1507359846.3,817,11.81,73266.3,-3.43,-3.95,-3.95,0,*5A
1507359847.51,818,11.81,73266.8,-3.39,-3.87,-4.01,0,*51
1507359848.7,819,11.81,73262.5,-3.39,-3.91,-3.91,0,*59
1507359849.9,820,11.81,73264.0,-3.39,-3.91,-3.91,0,*53
1507359851.12,821,11.81,73264.8,-3.39,-3.91,-4.01,0,*5C
1507359852.33,822,11.88,73266.5,-3.39,-3.87,-4.01,0,*58
1507359853.52,823,11.88,73270.5,-3.39,-3.91,-4.05,0,*5A
1507359854.71,824,11.88,73266.5,-3.39,-3.91,-4.05,0,*5D
1507359855.93,825,11.88,73266.5,-3.39,-3.91,-4.01,0,*58
1507359857.15,826,11.88,73268.0,-3.37,-3.91,-4.05,0,*51
1507359858.35,827,11.88,73264.5,-3.39,-3.91,-4.05,0,*5E
1507359859.58,828,11.88,73268.8,-3.39,-4.01,-4.01,0,*5B
1507359860.85,829,11.88,73264.5,-3.37,-4.01,-4.01,0,*54
1507359862.05,830,11.88,73266.5,-3.39,-3.91,-3.91,0,*52
1507359863.24,831,11.81,73266.8,-3.39,-3.91,-3.87,0,*54
1507359864.48,832,11.81,73268.3,-3.37,-3.87,-4.01,0,*57
1507359865.73,833,11.88,73268.3,-3.37,-3.79,-4.01,0,*57
1507359866.97,834,11.88,73266.5,-3.37,-3.87,-4.01,0,*51
1507359868.15,835,11.81,73260.0,-3.39,-3.87,-3.91,0,*50
1507359869.39,836,11.88,73260.0,-3.37,-3.87,-4.01,0,*53
1507359870.63,837,11.81,73262.0,-3.37,-3.87,-4.01,0,*52
1507359871.83,838,11.88,73260.0,-3.39,-3.91,-3.87,0,*5D
1507359873.01,839,11.81,73262.5,-3.39,-3.87,-3.91,0,*5C
1507359874.26,840,11.81,73262.3,-3.37,-3.91,-4.01,0,*55
1507359875.45,841,11.88,73262.8,-3.39,-3.87,-3.91,0,*53
1507359876.66,842,11.88,73264.5,-3.37,-3.87,-3.91,0,*5E
1507359877.9,843,11.88,73264.3,-3.37,-3.87,-4.01,0,*51
1507359879.12,844,11.88,73264.3,-3.37,-3.87,-3.87,0,*5F
1507359880.34,845,11.88,73264.3,-3.37,-3.91,-3.91,0,*5E
1507359881.56,846,11.88,73264.5,-3.37,-3.87,-3.91,0,*5A
1507359882.75,847,11.81,73260.3,-3.35,-3.87,-3.87,0,*5E
1507359883.94,848,11.88,73264.0,-3.35,-3.83,-3.95,0,*56
1507359885.19,849,11.88,73264.8,-3.37,-3.91,-4.01,0,*5C
1507359886.41,850,11.88,73264.0,-3.33,-3.83,-3.95,0,*59
1507359887.61,851,11.88,73270.3,-3.35,-3.83,-3.95,0,*5E
1507359888.8,852,11.88,73268.5,-3.35,-3.83,-3.87,0,*5E
1507359890.02,853,11.88,73268.3,-3.33,-3.87,-3.87,0,*5D
1507359891.21,854,11.88,73270.5,-3.35,-3.87,-3.95,0,*5F
1507359892.43,855,11.88,73270.3,-3.33,-3.83,-3.87,0,*5F
1507359893.62,856,11.88,73266.3,-3.35,-3.83,-3.87,0,*5A
1507359894.82,857,11.81,73258.8,-3.35,-3.83,-3.87,0,*5B
1507359896.04,858,11.88,73264.5,-3.33,-3.75,-3.87,0,*5B
1507359897.25,859,11.88,73264.0,-3.33,-3.87,-3.87,0,*57
1507359898.46,860,11.88,73264.5,-3.33,-3.87,-3.87,0,*5D
1507359899.66,861,11.81,73262.8,-3.35,-3.83,-3.87,0,*5E
1507359900.88,862,11.88,73262.3,-3.33,-3.83,-3.87,0,*5B
1507359902.09,863,11.88,73258.8,-3.33,-3.87,-3.95,0,*5D
1507359903.31,864,11.88,73260.8,-3.33,-3.83,-3.87,0,*5D
1507359904.53,865,11.81,73258.0,-3.29,-3.79,-3.83,0,*56
1507359905.75,866,11.88,73262.0,-3.33,-3.83,-3.87,0,*5F
1507359906.97,867,11.88,73262.0,-3.33,-3.83,-3.87,0,*5E
1507359908.19,868,11.88,73260.3,-3.33,-3.83,-3.87,0,*51
1507359909.4,869,11.88,73260.5,-3.33,-3.83,-3.87,0,*50
1507359910.62,870,11.88,73264.5,-3.33,-3.83,-3.83,0,*5C
1507359911.85,871,11.88,73262.3,-3.33,-3.75,-3.87,0,*50
1507359913.04,872,11.88,73262.8,-3.35,-3.75,-3.87,0,*55
1507359914.26,873,11.88,73262.3,-3.29,-3.79,-3.83,0,*51
1507359915.47,874,11.88,73260.8,-3.29,-3.79,-3.83,0,*56
1507359916.69,875,11.88,73262.8,-3.29,-3.79,-3.83,0,*57
1507359917.9,876,11.88,73266.0,-3.27,-3.71,-3.83,0,*52
1507359919.13,877,11.88,73262.3,-3.29,-3.71,-3.79,0,*58
1507359920.35,878,11.88,73266.5,-3.29,-3.79,-3.83,0,*5A
1507359921.56,879,11.88,73268.3,-3.29,-3.79,-3.83,0,*5B
1507359922.79,880,11.88,73266.3,-3.29,-3.71,-3.83,0,*55
1507359924.03,881,11.88,73270.3,-3.29,-3.71,-3.83,0,*54
1507359925.22,882,11.88,73268.5,-3.27,-3.79,-3.91,0,*52
1507359926.44,883,11.88,73270.0,-3.29,-3.83,-3.83,0,*5B
1507359927.65,884,11.88,73268.5,-3.29,-3.79,-3.83,0,*59
1507359928.87,885,11.88,73266.0,-3.29,-3.79,-3.83,0,*58
1507359930.09,886,11.88,73266.5,-3.29,-3.79,-3.91,0,*58
1507359931.31,887,11.88,73268.0,-3.29,-3.79,-3.91,0,*59
1507359932.5,888,11.88,73268.0,-3.27,-3.79,-3.91,0,*58
1507359933.7,889,11.88,73264.8,-3.27,-3.79,-3.91,0,*59
1507359934.89,890,11.88,73264.8,-3.27,-3.83,-3.83,0,*57
1507359936.08,891,11.88,73264.8,-3.27,-3.79,-3.83,0,*53
1507359937.27,892,11.88,73260.0,-3.27,-3.79,-3.83,0,*50
1507359938.48,893,11.88,73266.3,-3.29,-3.83,-3.83,0,*5A
1507359939.67,894,11.88,73262.8,-3.27,-3.79,-3.79,0,*53
1507359940.88,895,11.88,73260.3,-3.27,-3.71,-3.79,0,*5A
1507359942.08,896,11.88,73258.8,-3.27,-3.79,-3.91,0,*57
1507359943.27,897,11.88,73262.3,-3.27,-3.79,-3.83,0,*55
1507359944.46,898,11.88,73258.5,-3.27,-3.79,-3.91,0,*59
1507359945.65,899,11.88,73262.0,-3.27,-3.79,-3.83,0,*5B
1507359946.84,900,11.88,73258.8,-3.27,-3.79,-3.83,0,*5A
1507359948.03,901,11.88,73260.0,-3.27,-3.79,-3.83,0,*5B
1507359949.24,902,11.88,73262.3,-3.27,-3.71,-3.83,0,*50
1507359950.43,903,11.88,73258.8,-3.27,-3.79,-3.83,0,*59
1507359951.63,904,11.88,73260.0,-3.27,-3.71,-3.83,0,*56
1507359952.85,905,11.88,73260.0,-3.25,-3.79,-3.79,0,*58
1507359954.07,906,11.88,73262.5,-3.25,-3.75,-3.91,0,*51
1507359955.26,907,11.88,73262.8,-3.23,-3.75,-3.79,0,*50
1507359956.45,908,11.88,73262.8,-3.23,-3.75,-3.87,0,*5E
1507359957.65,909,11.88,73260.3,-3.23,-3.75,-3.79,0,*5E
1507359958.86,910,11.88,73260.8,-3.25,-3.79,-3.87,0,*5D
1507359960.08,911,11.88,73264.0,-3.25,-3.79,-3.87,0,*5C
1507359961.29,912,11.88,73260.0,-3.25,-3.79,-3.87,0,*5F
1507359962.48,913,11.88,73262.0,-3.23,-3.75,-3.87,0,*54
1507359963.69,914,11.88,73262.3,-3.23,-3.71,-3.83,0,*53
1507359964.93,915,11.88,73264.8,-3.25,-3.67,-3.79,0,*56
1507359966.12,916,11.88,73266.3,-3.23,-3.75,-3.79,0,*50
1507359967.32,917,11.88,73260.8,-3.23,-3.71,-3.83,0,*50
1507359968.54,918,11.88,73260.5,-3.25,-3.79,-3.87,0,*55
1507359969.73,919,11.88,73260.8,-3.23,-3.75,-3.83,0,*5A
1507359970.95,920,11.88,73262.0,-3.25,-3.75,-3.87,0,*52
1507359972.18,921,11.88,73266.3,-3.25,-3.67,-3.79,0,*51
1507359973.39,922,11.88,73266.3,-3.23,-3.71,-3.75,0,*5F
1507359974.6,923,11.88,73266.8,-3.23,-3.71,-3.75,0,*5E
1507359975.79,924,11.88,73262.5,-3.23,-3.75,-3.75,0,*5D
1507359977.0,925,11.88,73262.8,-3.23,-3.71,-3.83,0,*51
1507359978.2,926,11.88,73260.5,-3.23,-3.71,-3.83,0,*52
1507359979.41,927,11.88,73262.5,-3.23,-3.71,-3.75,0,*5A
1507359980.61,928,11.88,73260.5,-3.23,-3.75,-3.75,0,*51
1507359981.8,929,11.88,73262.3,-3.23,-3.75,-3.83,0,*59
1507359983.01,930,11.88,73266.3,-3.23,-3.71,-3.75,0,*5C
1507359984.22,931,11.88,73268.5,-3.23,-3.71,-3.75,0,*5D
1507359985.42,932,11.88,73264.8,-3.23,-3.71,-3.83,0,*57
1507359986.61,933,11.88,73268.3,-3.23,-3.75,-3.83,0,*52
1507359987.82,934,11.88,73264.3,-3.23,-3.71,-3.83,0,*51
1507359989.01,935,11.88,73264.5,-3.23,-3.75,-3.83,0,*54
1507359990.24,936,11.88,73266.3,-3.21,-3.71,-3.83,0,*51
1507359991.48,937,11.88,73262.3,-3.21,-3.71,-3.75,0,*59
1507359992.72,938,11.88,73264.5,-3.21,-3.71,-3.75,0,*56
1507359993.94,939,11.88,73266.0,-3.21,-3.75,-3.83,0,*5A
1507359995.16,940,11.88,73264.0,-3.21,-3.75,-3.83,0,*54
1507359996.39,941,11.88,73266.5,-3.21,-3.71,-3.83,0,*51
1507359997.63,942,11.88,73266.3,-3.21,-3.71,-3.87,0,*56
1507359998.85,943,11.88,73264.0,-3.21,-3.75,-3.83,0,*57
1507360000.08,944,11.88,73266.5,-3.21,-3.71,-3.87,0,*50
1507360001.29,945,11.88,73268.3,-3.19,-3.67,-3.79,0,*5C
1507360002.51,946,11.88,73264.3,-3.21,-3.75,-3.83,0,*52
1507360003.72,947,11.88,73264.0,-3.19,-3.71,-3.79,0,*59
1507360004.94,948,11.88,73262.5,-3.19,-3.67,-3.79,0,*51
1507360006.14,949,11.88,73266.3,-3.19,-3.71,-3.83,0,*52
1507360007.36,950,11.88,73260.3,-3.19,-3.71,-3.79,0,*5F
1507360008.58,951,11.88,73260.8,-3.21,-3.75,-3.83,0,*54
1507360009.79,952,11.88,73262.0,-3.19,-3.71,-3.79,0,*5D
1507360011.02,953,11.88,73260.5,-3.21,-3.71,-3.83,0,*52
1507360012.23,954,11.88,73260.3,-3.19,-3.71,-3.79,0,*5B
1507360013.45,955,11.88,73256.5,-3.21,-3.75,-3.83,0,*50
1507360014.66,956,11.88,73258.8,-3.19,-3.67,-3.79,0,*5E
1507360015.88,957,11.88,73258.3,-3.19,-3.71,-3.79,0,*58
1507360017.09,958,11.88,73262.0,-3.19,-3.71,-3.79,0,*57
1507360018.3,959,11.88,73258.5,-3.19,-3.67,-3.79,0,*51
1507360019.51,960,11.88,73262.3,-3.19,-3.71,-3.83,0,*59
1507360020.72,961,11.88,73260.3,-3.19,-3.67,-3.83,0,*5F
1507360021.93,962,11.88,73256.0,-3.19,-3.67,-3.79,0,*59
1507360023.16,963,11.88,73260.8,-3.21,-3.71,-3.87,0,*55
1507360024.38,964,11.88,73264.0,-3.19,-3.67,-3.79,0,*5F
1507360025.59,965,11.88,73260.8,-3.19,-3.59,-3.79,0,*53
1507360026.8,966,11.88,73258.8,-3.19,-3.67,-3.79,0,*5D
1507360028.03,967,11.88,73260.0,-3.19,-3.71,-3.71,0,*53
1507360029.28,968,11.88,73258.8,-3.17,-3.71,-3.71,0,*52
1507360030.54,969,11.88,73260.5,-3.17,-3.67,-3.71,0,*54
1507360031.79,970,11.94,73266.8,-3.17,-3.67,-3.71,0,*5C
1507360033.04,971,11.88,73260.8,-3.17,-3.67,-3.71,0,*5D
1507360034.27,972,11.88,73260.8,-3.17,-3.71,-3.83,0,*54
1507360035.51,973,11.88,73258.5,-3.17,-3.67,-3.83,0,*52
1507360036.74,974,11.88,73260.3,-3.17,-3.71,-3.79,0,*57
1507360037.98,975,11.88,73260.3,-3.17,-3.67,-3.79,0,*51
1507360039.22,976,11.94,73262.3,-3.17,-3.67,-3.79,0,*52
1507360040.45,977,11.88,73262.0,-3.17,-3.71,-3.83,0,*51
1507360041.7,978,11.88,73260.8,-3.17,-3.59,-3.71,0,*59
1507360042.94,979,11.88,73262.0,-3.17,-3.67,-3.79,0,*5D
1507360044.18,980,11.88,73266.8,-3.13,-3.63,-3.75,0,*57
1507360045.44,981,11.88,73264.5,-3.17,-3.59,-3.67,0,*58
1507360046.67,982,11.88,73260.5,-3.17,-3.67,-3.83,0,*5C
1507360047.91,983,11.88,73266.3,-3.17,-3.67,-3.79,0,*58
1507360049.14,984,11.94,73266.5,-3.13,-3.67,-3.75,0,*57
1507360050.38,985,11.94,73266.8,-3.13,-3.63,-3.75,0,*52
1507360051.62,986,11.88,73262.5,-3.13,-3.63,-3.75,0,*51
1507360052.85,987,11.88,73262.3,-3.17,-3.67,-3.79,0,*5C
1507360054.09,988,11.88,73260.3,-3.13,-3.67,-3.75,0,*5B
1507360055.33,989,11.94,73264.0,-3.17,-3.67,-3.79,0,*52
1507360056.56,990,11.88,73258.8,-3.13,-3.63,-3.75,0,*56
1507360057.8,991,11.88,73260.8,-3.13,-3.67,-3.79,0,*5F
1507360059.04,992,11.94,73264.3,-3.13,-3.63,-3.79,0,*58
1507360060.28,993,11.88,73260.8,-3.13,-3.63,-3.79,0,*59
1507360061.52,994,11.88,73260.8,-3.13,-3.63,-3.79,0,*5E
1507360062.75,995,11.88,73260.3,-3.13,-3.63,-3.75,0,*53
1507360063.99,996,11.94,73262.5,-3.13,-3.67,-3.75,0,*54
1507360065.23,997,11.88,73260.0,-3.13,-3.63,-3.75,0,*51
1507360066.47,998,11.94,73266.0,-3.13,-3.63,-3.75,0,*5E
1507360067.7,999,11.88,73260.5,-3.13,-3.67,-3.75,0,*5B
1507360068.92,1000,11.94,73262.3,-3.11,-3.67,-3.75,0,*61
1507360070.14,1001,11.94,73260.3,-3.11,-3.63,-3.75,0,*64
1507360071.36,1002,11.88,73260.5,-3.11,-3.63,-3.75,0,*67
1507360072.58,1003,11.88,73260.0,-3.11,-3.67,-3.79,0,*6E
1507360073.8,1004,11.88,73260.0,-3.11,-3.67,-3.75,0,*65
1507360075.02,1005,11.94,73266.8,-3.11,-3.63,-3.79,0,*6C
1507360076.23,1006,11.94,73266.0,-3.11,-3.67,-3.75,0,*67
1507360077.48,1007,11.94,73266.8,-3.09,-3.63,-3.75,0,*6B
1507360078.75,1008,11.94,73262.0,-3.09,-3.63,-3.63,0,*63
1507360079.96,1009,11.88,73260.0,-3.11,-3.67,-3.79,0,*64
1507360081.23,1010,11.88,73256.3,-3.09,-3.59,-3.59,0,*6A
1507360082.45,1011,11.88,73262.5,-3.11,-3.67,-3.79,0,*6D
1507360083.67,1012,11.88,73260.5,-3.11,-3.63,-3.75,0,*66
1507360084.89,1013,11.94,73264.8,-3.11,-3.59,-3.75,0,*6E
1507360086.11,1014,11.94,73264.0,-3.11,-3.63,-3.75,0,*60
1507360087.38,1015,11.94,73264.0,-3.09,-3.59,-3.71,0,*65
1507360088.64,1016,11.88,73262.8,-3.09,-3.59,-3.63,0,*65
1507360089.86,1017,11.94,73262.5,-3.11,-3.67,-3.75,0,*67
1507360091.12,1018,11.94,73264.3,-3.09,-3.63,-3.71,0,*61
1507360092.34,1019,11.94,73264.8,-3.11,-3.67,-3.75,0,*69
1507360093.56,1020,11.94,73264.8,-3.11,-3.67,-3.75,0,*63
1507360094.78,1021,11.94,73264.3,-3.11,-3.63,-3.75,0,*66
1507360096.03,1022,11.94,73264.8,-3.09,-3.63,-3.75,0,*6C
1507360097.24,1023,11.94,73266.3,-3.11,-3.67,-3.79,0,*6C
1507360098.51,1024,11.94,73264.8,-3.09,-3.63,-3.71,0,*6E
1507360099.77,1025,11.94,73264.0,-3.09,-3.59,-3.63,0,*65
1507360101.04,1026,11.94,73268.5,-3.09,-3.63,-3.71,0,*6C
1507360102.28,1027,11.94,73264.5,-3.09,-3.59,-3.75,0,*60
1507360103.51,1028,11.94,73266.8,-3.11,-3.63,-3.79,0,*63
1507360104.77,1029,11.94,73270.3,-3.09,-3.59,-3.71,0,*6A
1507360105.99,1030,11.88,73264.8,-3.11,-3.63,-3.75,0,*66
1507360107.25,1031,11.94,73266.8,-3.09,-3.59,-3.71,0,*63
1507360108.52,1032,11.94,73266.0,-3.09,-3.59,-3.63,0,*63
1507360109.78,1033,11.94,73262.0,-3.09,-3.59,-3.63,0,*62
1507360111.0,1034,11.94,73266.3,-3.07,-3.59,-3.75,0,*6C
1507360112.24,1035,11.94,73264.5,-3.07,-3.63,-3.63,0,*63
1507360113.51,1036,11.94,73264.3,-3.09,-3.63,-3.71,0,*6D
1507360114.75,1037,11.94,73262.5,-3.07,-3.59,-3.71,0,*6B
1507360115.98,1038,11.94,73264.8,-3.07,-3.51,-3.71,0,*6C
1507360117.22,1039,11.94,73264.8,-3.07,-3.59,-3.71,0,*65
1507360118.44,1040,11.94,73266.5,-3.07,-3.59,-3.75,0,*6F